FENGYUN 1C DEB *, 46997

Orbit data source: Space-Track

FENGYUN 1C DEB *, 46997 is space debris in SSO originally from a launch on Mon, 10 May 1999 UTC launched from the Taiyaun Space Center, China (TSC). Fengyun 1C debris stems from the Chinese weather satellite Fengyun-1C, which was intentionally destroyed by a Chinese anti-satellite missile in 2007. This event dramatically increased the amount of space debris, with thousands of trackable fragments posing hazards to satellites and human spaceflight. The Fengyun 1C debris cloud has become a focal point in discussions about space sustainability and the need for international regulations to prevent the creation of new debris.

Loading next visibility...
Identifier
46997, 1999-025EZX
Orbit
SSO
Country
Flag of CNCN / PRC
Related business
Manufacturer
Unknown
Mission
Spacecraft
Bus & Motor
Unknown
Mass
Unknown
Launch date (UTC)
1999-05-10 (27 years ago)
Launch vehicle
Unknown
Launch site
Taiyaun Space Center, China (TSC)
Object type
Payload
Rocket body
Debris
Shape & HBR
Unknown shape, 0.1 m
Radar Cross Section
Small (<0.1 m²)

Expand to show TLE details & history
Last TLE update: 1 day ago

TLE from 1 day ago
0 FENGYUN 1C DEB *
1 46997U 99025EZX 26163.93353303  .00002137  00000-0  85946-3 0  9995
2 46997  98.5399 205.5960 0026691 157.6019 325.3862 14.28926281650520
Epoch: 2026-06-12T22:24Z
TLE epoch observation values (Epoch: 2026-06-12T22:24:17.253Z)
Latitude
56.31412°
Longitude
161.21712°
Altitude
788.953 km
Speed
7.473 km/s
True Right ascension
02h 34m 10s
True Declination
56° 09' 21"
Sunlit
Object was in daylight at epoch
Visualization orbit readout
Latitude
Unknown
Longitude
Unknown
Altitude
Unknown
Speed
Unknown
Apparent Right ascension
Unknown
Apparent Declination
Unknown
Sunlit
N/A
Visualization observer readout
Local Sidereal Time
17:15:22
Azimuth
Unknown
Elevation
Unknown
Doppler factor
Unknown
Orbital elements
Apogee altitude
811.6 km
Perigee altitude
773.322 km
Semi-major axis
7,170.598 km
Eccentricity
0.00267
Inclination
98.5399°
RAAN
205.596°
Arg. of periapsis
157.6019°
True anomaly
325.21198°
Mean anomaly
325.3862°
Eccentric anomaly
325.29914°
Mean motion
3.57446 °/min
Orbital period
100.71 mins
BSTAR
0.00085946
Loading maneuver chart data...
Computing Atmospheric mass density...

Documentation

Showing up to 5 results
|